Regional Weather Roundup
Issued by NWS Upton, NY

Current Version | Previous Version | Text Only | Print | Product List | Glossary On
Versions: 1 2 3 4 5 6 7 8 9 10 11 12 13 14 15 16 17 18 19 20 21 22 23 24 25 26 27
000
ASUS41 KOKX 041308
RWROKX

REGIONAL WEATHER ROUNDUP
NATIONAL WEATHER SERVICE NEW YORK NY
800 AM EST SUN DEC 04 2016

NOTE: "FAIR" INDICATES FEW OR NO CLOUDS BELOW 12,000 FEET WITH NO
SIGNIFICANT WEATHER AND/OR OBSTRUCTIONS TO VISIBILITY.

NYZ071-072-176-178-NJZ106-104-041400-
NEW YORK CITY METRO AREA

CITY           SKY/WX    TMP DP  RH WIND       PRES   REMARKS
Central Park   PTCLDY    39  22  50 VRB5      30.25R
Wall St Helipt MOSUNNY   42  25  50 VRB5      30.24R
Bronx Bot Gard NOT AVBL
LaGuardia APRT PTCLDY    41  24  51 NW13      30.22S
Kennedy INTL   PTCLDY    41  21  44 NW12      30.24R
Breezy Point     N/A     39 N/A N/A NW14G20     N/A  WCI  31
Newark/Liberty PTCLDY    40  23  50 NW6       30.24R
Teterboro      CLEAR     38  22  52 W6        30.23R WCI  33
$$

NYZ177-179-078>081-041400-
LONG ISLAND NEW YORK

CITY           SKY/WX    TMP DP  RH WIND       PRES   REMARKS
Jones Beach      N/A     39 N/A N/A NW12G17     N/A  WCI  32
Matinecock PT  NOT AVBL
Farmingdale    CLEAR     34  28  79 CALM      30.22R
MacArthur/ISP  PTCLDY    35  27  72 CALM      30.21R
Shirley        CLEAR     32  25  75 CALM      30.22R
Westhampton    CLEAR     37  21  52 N9        30.22R WCI  30
Southampton    NOT AVBL
Bridgehampton  NOT AVBL
East Hampton     N/A     35  21  57 NW3       30.20R
Montauk          N/A     37  20  50 NW12      30.20R WCI  29
$$

NYZ052-065-067-041400-
HUDSON VALLEY

CITY           SKY/WX    TMP DP  RH WIND       PRES   REMARKS
White Plains   CLEAR     34  24  67 N6        30.20R WCI  29
Newburgh       CLEAR     30  25  80 CALM      30.22R
Montgomery     CLEAR     34  22  61 NW5       30.21R WCI  30
Poughkeepsie   CLEAR     27  23  85 CALM      30.22R
Albany         MOCLDY    29  19  66 NW5       30.24R WCI  24
$$

NJZ001-105-106-008-010-013-015-019>022-104-041400-
NEW JERSEY

CITY           SKY/WX    TMP DP  RH WIND       PRES   REMARKS
Newark/Liberty PTCLDY    40  23  50 NW6       30.24R
Teterboro      CLEAR     38  22  52 W6        30.23R WCI  33
Caldwell       CLOUDY    38  22  52 NW5       30.24R WCI  34
Somerville     PTCLDY    38  24  57 NW3       30.22R
Linden         PTSUNNY   38  23  54 CALM      30.24S
Sussex         MOCLDY    36  24  62 CALM      30.22R
Andover          N/A     37  23  56 N6        30.22R WCI  32
Trenton        PTCLDY    39  23  52 CALM      30.24R
Millville      MOCLDY    37  30  75 W3        30.25S
Atlantic City  PTCLDY    35  26  69 CALM      30.25R
Wrightstown    NOT AVBL
Toms River     MOCLDY    36  27  69 NW7       30.24S WCI  30
Belmar         CLEAR    N/A N/A N/A NW6       30.25
$$

PAZ047>061-062-071-041400-
EASTERN PENNSYLVANIA

CITY           SKY/WX    TMP DP  RH WIND       PRES   REMARKS
Philadelphia   MOCLDY    41  25  53 N3        30.26R
Allentown      CLOUDY    41  26  55 W3        30.23S
Scranton       CLOUDY    36  26  67 N6        30.21S WCI  31
$$

CTZ002-004>006-009-010-012-RIZ004-006-007-MAZ004-011-015-041400-
SOUTHERN NEW ENGLAND
 IN CT

CITY           SKY/WX    TMP DP  RH WIND       PRES   REMARKS
Bradley INTL   PTCLDY    31  19  61 NW6       30.20R WCI  25
Hartford       CLEAR     34  19  54 NW7       30.20R WCI  28
Danbury        CLEAR     30  21  69 NW3       30.21R
Wtrbury/Oxford PTCLDY    30  18  59 N6        30.18R WCI  24
Bridgeport     CLEAR     33  23  66 W6        30.21R WCI  28
Meriden        CLEAR     31  22  69 N6        30.21R WCI  25
New Haven      CLEAR     34  20  56 N8        30.21R WCI  27
Chester          N/A     34  19  55 CALM      30.18R
Groton         CLEAR     37  21  52 NW3       30.19R
Wilimantic     CLOUDY    34  20  56 W6        30.20R WCI  29

 IN RI

CITY           SKY/WX    TMP DP  RH WIND       PRES   REMARKS
Providence     CLOUDY    34  19  54 NW8       30.17R WCI  27
Block Island   CLOUDY    36  22  56 NW7       30.18R WCI  30
Westerly       CLOUDY    32  20  61 CALM      30.19R
 IN MA

CITY           SKY/WX    TMP DP  RH WIND       PRES   REMARKS
Boston         MOCLDY    34  20  56 N14       30.18R WCI  25
Worcester      CLOUDY    29  18  63 NW14      30.13R WCI  18
Westfield      PTCLDY    25  22  88 CALM      30.20R
Provincetown   CLOUDY    37  23  56 NW15      30.15R WCI  28
Nantucket      CLEAR     37  24  59 NW15G24   30.13R WCI  28
$$

ANZ330-335-338-340-345-350-353-355-041400-
COASTAL MARINE OBSERVATIONS


STATION/POSITION TIME  SKY/WX   TEMP    WIND        PRES    VSBY  WAVE
                                AIR SEA DIR/SP/G                  HT/PER
                 (UTC)          (F)     (DEG/KT/KT) (MB)    (MI)  (FT/S)
NY HARB ENTRANCE 1150            43 53  320/ 16/ 21 1022.6          2/ 4
20 S FIRE ISLAND 1150            42 53  340/ 17/ 23 1022.0          3/ 4
GREAT SOUTH BAY  1230            37 43                N/A
23 SSW MONTAUK P 1150            39 55  320/ 17/ 23 1021.8          3/ 4
15 E BARNEGAT LI 1230               54                N/A           3/ 5
HUDSON CANYON    1150            46 58              1021.5          5/ 6
KINGS POINT      1230            40 47              1023.0
EXECUTION ROCKS  1245            42     290/  6/ 10   N/A
CENTRAL LI SOUND 1245            38 51  330/ 16/ 21   N/A           2/ 3
EASTERN LI SOUND NOT AVBL
ROBBINS REEF     1230            40     320/ 10/ 12 1023.6
$$


>>>>>>>>>>>>>>>>>>>>>>>>>>>> KEY <<<<<<<<<<<<<<<<<<<<<<<<<<<
>                                                          <
>     SKY/WX - Sky Condition/Present Weather               <
>     TMP    - Temperature in Fahrenheit                   <
>     DP     - Dew Point in Fahrenheit                     <
>     RH     - Relative Humidity in Percent                <
>     WIND   - Direction (from) and Speed in MPH           <
>     PRES   - Mean Sea Level Pressure (inches of Hg)      <
>     WCI    - Wind Chill Index                            <
>     VSB    - VISIBILITY IN MILES                         <
>     HX     - HEAT INDEX                                  <
>     TC     - TEMPERATURE IN CELSIUS                      <
>     VRB    - VARIABLE WIND DIRECTION                     <
>                                                          <
>>>>>>>>>>>>>>>>>>>>>>>>>>>> KEY <<<<<<<<<<<<<<<<<<<<<<<<<<<




USA.gov is the U.S. government's official web portal to all federal, state and local government web resources and services.